Location: Liesse
(49.6092°N, 3.8063°E)
Time: 04:17:07
(UTC+00:00)

Daily predictions for brighter satellites

Satellite Brightness Start Highest point End
(mag) Time Altitude Azimuth Time Altitude Azimuth Time Altitude Azimuth
Cosmos 468 4.5 00:03:47 27° SSW 00:06:43 86° WNW 00:12:03 10° NNE
Cosmos 2082 Rocket 3.1 00:01:49 10° NW 00:06:46 32° WSW 00:09:02 24° SW
COSMOS 2455 4.2 00:04:46 18° SE 00:07:32 25° ESE 00:12:17 10° NE
MetOp-A 3.7 00:06:33 34° SSW 00:07:45 47° W 00:11:27 10° NNW
Nadezhda 1 Rocket 4.2 00:04:29 24° SSW 00:08:17 64° WNW 00:14:28 10° N
Cosmos 1869 3.7 00:08:55 10° N 00:12:14 45° ENE 00:13:40 28° SE
Cosmos 2278 Rocket 3.6 00:07:11 10° WSW 00:12:21 35° NW 00:17:32 10° NNE
CZ-4C R/B 4.0 00:12:12 10° NNE 00:15:40 38° E 00:16:54 29° SE
NOSS 3-1 (A) 4.4 00:14:35 17° SE 00:16:15 20° ESE 00:20:01 10° ENE
Cosmos 1356 Rocket 3.6 00:12:25 10° N 00:16:23 61° ENE 00:18:25 27° SSE
SL-8 R/B 3.8 00:15:45 24° SW 00:18:21 52° SSE 00:22:59 10° E
Cosmos 1452 Rocket 4.1 00:13:39 10° NW 00:18:37 43° WSW 00:20:54 28° SSW
Cosmos 1992 Rocket 4.1 00:13:33 10° NNW 00:18:46 76° ENE 00:22:24 20° SSE
USA 308 3.7 00:23:07 25° SE 00:23:09 25° SE 00:26:34 10° ENE
Cosmos 1908 Rocket 3.8 00:19:08 10° N 00:23:33 64° ENE 00:26:03 25° SSE
NOSS 3-1 (C) 3.1 00:22:31 30° S 00:24:42 57° SE 00:30:09 10° NE
CZ-3B R/B 4.5 00:28:33 22° SSW 00:33:31 66° SE 01:05:04 10° ENE
COSMOS 2406 3.8 00:29:05 10° NW 00:34:23 41° WSW 00:37:01 26° SSW
Cosmos 2341 Rocket 4.0 00:28:17 10° NNW 00:34:31 71° W 00:38:22 24° S
SL-8 Rocket 4.1 00:32:09 10° NNW 00:38:14 64° W 00:41:58 24° SSW
Cosmos 1782 Rocket 4.2 00:37:37 10° N 00:41:57 51° ENE 00:45:03 17° SSE
SL-4 R/B 2.0 00:42:23 35° SSE 00:42:23 35° SSE 00:45:15 10° E
Cosmos 1943 Rocket 4.5 00:44:11 10° W 00:48:12 19° NW 00:52:13 10° N
Cosmos 2297 3.7 00:45:21 25° SSW 00:48:49 77° ESE 00:54:33 10° NNE
DELTA 2 DEB (DPAF) 3.5 00:48:45 10° NNE 00:52:18 75° ESE 00:53:47 33° S
Lacrosse 4 Rocket 1.5 00:48:28 10° NNW 00:52:43 78° ENE 00:56:30 12° SE
USA 59 Rocket 2.2 00:52:07 10° WNW 00:53:40 13° NNW 00:55:09 10° N
Cosmos 2369 Rocket 2.2 00:50:46 24° SSW 00:54:17 86° WNW 00:59:56 10° NNE
BREEZE-M DEB (TANK) 4.3 00:30:46 10° W 00:55:01 82° SSW 00:59:42 10° ESE
USA 290 2.4 00:53:31 10° NW 00:56:34 48° WSW 00:57:15 39° SSW
CZ-2C R/B 3.8 00:55:17 19° SW 00:57:36 26° W 01:01:59 10° NW
ADEOS Rocket 3.9 00:55:09 10° NNE 01:01:10 42° E 01:05:49 14° SSE
Cosmos 2228 Rocket 3.9 00:59:27 22° SW 01:01:48 38° WNW 01:05:56 10° N
Geosat 4.3 01:02:54 10° NNE 01:07:51 62° NW 01:11:26 19° SW
Lacrosse 5 rocket 3.5 01:05:03 10° NW 01:07:56 23° N 01:10:47 10° ENE
USA 276 1.7 01:09:04 24° WSW 01:10:37 87° S 01:13:38 10° E
In-Cosmos 22 Rocket 4.3 01:09:23 20° S 01:13:10 75° E 01:18:47 10° NNE
Cosmos 1818 3.6 01:09:43 23° SSW 01:13:10 69° SE 01:18:37 10° NE
Cosmos 2239 Rocket 4.4 01:10:15 10° N 01:16:28 84° W 01:21:32 16° S
Cosmos 1300 Rocket 3.7 01:12:22 10° NNW 01:16:38 58° W 01:19:07 23° SSW
Cosmos 1315 Rocket 4.4 01:15:18 10° NW 01:17:59 18° W 01:19:10 16° WSW
ARIANE 6 FM1 Upper Stage 3.0 01:16:12 18° WSW 01:19:11 63° NW 01:23:16 10° NE
CENTAUR R/B 4.3 01:19:48 10° NW 01:27:18 48° NNE 01:36:07 10° ESE
Cosmos 1703 Rocket 4.3 01:25:41 20° SW 01:28:15 40° WNW 01:32:25 10° N
Meteor 2-19 Rocket 4.5 01:24:50 17° S 01:29:38 81° E 01:35:43 10° NNE
Cosmos 2181 Rocket 4.5 01:25:44 18° SW 01:30:16 51° WNW 01:36:30 10° N
Cosmos 1934 Rocket 4.2 01:25:11 10° N 01:31:30 78° E 01:37:51 10° SSE
ATLAS 5 CENTAUR R/B 2.4 01:30:58 11° W 01:33:21 28° NW 01:36:11 10° NNE
Nadezhda 3 Rocket 4.0 01:29:57 18° SSW 01:34:42 80° W 01:41:01 10° N
Cosmos 546 4.4 01:32:52 10° WNW 01:36:39 75° SSW 01:40:25 10° ESE
Cosmos 1339 Rocket 4.5 01:32:02 16° S 01:36:57 87° E 01:43:04 10° N
Meteor 1-21 Rocket 4.4 01:32:42 16° S 01:37:27 80° E 01:43:24 10° NNE
Cosmos 405 Rocket 4.4 01:35:23 10° SE 01:37:33 19° E 01:39:44 10° NE
SeaSat 1 4.1 01:35:01 10° ESE 01:39:27 36° NE 01:43:55 10° NNW
PSLV R/B 4.2 01:35:55 10° N 01:39:40 49° WNW 01:42:06 20° SW
Cosmos 407 Rocket 4.3 01:37:55 13° S 01:42:08 43° ESE 01:46:58 10° NE
Nimbus 7 Rocket 4.4 01:36:52 10° NNE 01:42:48 87° WNW 01:47:36 16° SSW
SJ 16-02 2.5 01:39:46 12° SSE 01:43:17 33° ESE 01:47:06 10° NE
ACS3 Solar Sail 3.0 01:38:48 10° N 01:43:27 27° WNW 01:48:09 10° WSW
Cosmos 921 Rocket 3.1 01:41:09 18° S 01:44:12 68° ESE 01:48:22 10° NNE
USA 308 2.6 01:41:52 16° WSW 01:44:48 88° NNW 01:49:05 10° ENE
IDEFIX/ARIANE 42P 2.6 01:47:34 10° NNE 01:52:50 81° WNW 01:57:12 15° SSW
COSMOS 2455 3.0 01:47:52 15° SW 01:52:54 72° NW 01:58:57 10° NNE
Cosmos 540 Rocket 3.5 01:48:53 10° NNW 01:54:01 85° ENE 01:59:06 10° SSE
Cosmos 1674 Rocket 4.4 01:53:56 10° SSE 01:58:10 46° E 02:02:24 10° NNE
ADEOS II 4.0 01:56:08 10° NE 02:00:18 24° E 02:04:27 10° SE
SL-8 R/B 3.6 01:55:44 10° W 02:00:29 79° S 02:05:16 10° E
SL-19 R/B 3.8 01:59:03 12° S 02:02:07 67° WSW 02:05:22 10° NNW
Cosmos 2227 Rocket 4.5 01:58:17 10° NNW 02:03:08 28° NE 02:07:57 10° ESE
Meteor 1-11 4.3 02:00:23 12° S 02:05:35 85° E 02:11:19 10° NNE
NOSS 3-1 (A) 3.2 02:01:56 13° SW 02:06:07 71° NW 02:11:59 10° NE
Resurs 1-4 Rocket 3.2 02:05:46 10° NNE 02:10:44 41° E 02:15:40 10° SSE
Okean 1 Rocket 3.9 02:06:48 10° N 02:11:04 52° ENE 02:15:16 10° SSE
NOSS 3-1 (C) 4.4 02:11:06 10° W 02:15:41 36° NNW 02:21:17 10° NE
Cosmos 1140 Rocket 3.9 02:11:29 13° SW 02:15:53 51° WNW 02:20:54 10° NNE
Cosmos 1656 4.0 02:11:01 11° SSW 02:16:11 62° ESE 02:21:40 10° NE
H-2A R/B 3.3 02:11:18 10° NNE 02:16:14 39° E 02:21:02 10° SSE
Cosmos 1346 Rocket 3.1 02:14:57 14° SW 02:17:47 44° WNW 02:21:18 10° N
Cosmos 1605 Rocket 4.0 02:12:53 10° N 02:19:13 83° W 02:25:25 10° S
SL-4 R/B 1.5 02:16:20 10° W 02:19:28 70° NNW 02:22:34 10° ENE
COSMOS 2441 4.4 02:15:42 10° NNE 02:20:36 87° ESE 02:25:30 10° SSW
H-2A R/B 4.0 02:17:27 10° SE 02:20:59 36° ENE 02:24:36 10° N
Cosmos 1763 Rocket 3.7 02:20:51 10° NNW 02:25:43 48° WSW 02:30:32 10° S
Cosmos 371 Rocket 3.4 02:23:01 12° SSW 02:27:33 74° WNW 02:32:24 10° NNE
Cosmos 304 Rocket 4.0 02:25:25 12° SW 02:29:51 62° WNW 02:34:36 10° NNE
Lacrosse 4 Rocket 3.2 02:27:41 10° WNW 02:29:52 14° WSW 02:31:50 11° SW
Cosmos 2297 Rocket 2.3 02:28:15 10° NNW 02:33:57 84° ENE 02:39:37 10° SSE
NOSS 2-2 (D) 3.4 02:33:59 10° NW 02:37:35 88° SW 02:42:26 10° SE
Cosmos 2369 Rocket 4.0 02:34:54 10° W 02:39:07 21° NW 02:43:23 10° N
Cosmos 1025 Rocket 3.0 02:35:08 10° SSW 02:39:29 76° W 02:43:52 10° N
FENGYUN 3A 4.3 02:36:06 10° N 02:41:10 45° WNW 02:46:14 10° SW
MOZ.5/SAFIR/RUBIN 5/SL-8 4.0 02:37:17 10° S 02:41:44 50° W 02:46:15 10° NNW
USA 276 1.9 02:40:28 10° W 02:43:26 90° ENE 02:46:31 10° E
CZ-2D R/B 2.5 02:38:05 10° NNE 02:43:34 69° ESE 02:48:56 10° S
Lacrosse 5 rocket 2.4 02:41:49 10° NW 02:45:07 40° NNE 02:48:19 10° E
ADEOS Rocket 3.8 02:40:44 10° N 02:46:39 40° WNW 02:52:03 10° SW
Cosmos 1980 Rocket 4.5 02:47:04 10° SE 02:51:03 20° E 02:55:03 10° NE
DMSP B5D2-2 4.4 02:47:43 10° S 02:52:47 48° W 02:57:52 10° NNW
ALOS 2.3 02:48:26 10° NNE 02:53:02 85° ESE 02:57:34 10° SSW
NOSS 2-2 (C) 4.2 02:50:12 10° WNW 02:53:42 34° SW 02:58:19 10° S
ATLAS 3B R/B 4.1 02:48:07 10° S 02:54:58 38° ESE 03:02:02 10° NE
Cosmos 468 Rocket 4.1 02:51:43 10° NNW 02:56:42 53° WSW 03:01:37 10° S
